Location: Newark
(29.9790°N, 31.1340°E)
Time: 09:28:59
(UTC+00:00)

Vanguard 3 - Pass Details

Date: 19 January 2021
Orbit: 508 x 3262 km, 33.4° (Epoch: 07 March)

Event Time Altitude Azimuth Distance (km) Brightness Sun altitude
Exits shadow 03:50:20 14° 267° (W) 3,260 9.6 -13.3°
Maximum altitude 03:59:02 79° 353° (N) 2,095 9.1 -11.5°
Drops below altitude 10° 04:15:58 10° 81° (E) 5,829 12.6 -8.0°
Sets 04:21:08 0° 83° (E) 7,069 13.2 -6.9°
